Location: Melbourne
(37.8170°S, 144.9670°E)
Time: 01:27:43
(UTC+11:00)

deb Explorer IX - All Passes

Search period start: 27 January 2015 00:00
Search period end: 06 February 2015 00:00
Orbit: 556 x 1178 km, 38.8° (Epoch: 25 January)

Date Brightness Start Highest point End Pass type
(mag) Time Alt. Az. Time Alt. Az. Time Alt. Az.
27 Jan - 02:16:24 10° NNW 02:22:49 31° NE 02:29:29 10° E visible
27 Jan - 04:03:12 10° WNW 04:10:55 71° NNE 04:18:26 10° ESE visible
27 Jan - 05:51:49 10° W 05:59:38 83° S 06:06:46 10° E visible
27 Jan - 07:40:47 10° WSW 07:48:19 80° NNW 07:54:49 10° ENE daylight
27 Jan - 09:29:58 10° W 09:36:12 34° NW 09:41:31 10° NNE daylight
28 Jan - 02:06:57 10° NNW 02:13:35 36° NNE 02:20:31 10° E visible
28 Jan - 03:54:02 10° WNW 04:01:46 77° NNE 04:09:23 10° ESE visible
28 Jan - 05:42:42 10° W 05:50:33 83° S 05:57:46 10° E visible
28 Jan - 07:31:38 10° WSW 07:39:13 75° NNW 07:45:48 10° ENE daylight
28 Jan - 09:20:57 10° W 09:27:00 30° NW 09:32:13 10° NNE daylight
29 Jan - 00:14:58 10° NNE 00:16:54 11° NE 00:19:18 10° ENE night (unlit)
29 Jan - 01:57:32 10° NW 02:04:20 40° NNE 02:11:30 10° E visible
29 Jan - 03:44:52 10° WNW 03:52:37 82° NNE 04:00:17 10° ESE visible
29 Jan - 05:33:35 10° W 05:41:26 83° S 05:48:44 10° E visible
29 Jan - 07:22:28 10° WSW 07:30:03 69° NNW 07:36:43 10° ENE daylight
29 Jan - 09:11:57 10° W 09:17:46 27° NW 09:22:49 10° NNE daylight
30 Jan - 00:04:21 10° NNE 00:07:35 14° NE 00:11:20 10° ENE night (unlit)
30 Jan - 01:48:10 10° NW 01:55:04 45° NNE 02:02:25 10° E visible
30 Jan - 03:35:43 10° WNW 03:43:26 86° NNE 03:51:10 10° E visible
30 Jan - 05:24:25 10° W 05:32:17 85° S 05:39:40 10° E visible
30 Jan - 07:13:17 10° WSW 07:20:51 64° NNW 07:27:35 10° NE daylight
30 Jan - 09:02:59 10° W 09:08:29 23° NW 09:13:18 10° N daylight
30 Jan - 23:54:14 10° N 23:58:15 17° NE 00:02:49 10° E night (unlit)
31 Jan - 01:38:50 10° NW 01:45:47 51° NNE 01:53:17 10° E visible
31 Jan - 03:26:33 10° WNW 03:34:14 90° N 03:42:01 10° E visible
31 Jan - 05:15:15 10° W 05:23:07 86° S 05:30:33 10° E visible
31 Jan - 07:04:04 10° WSW 07:11:37 58° NNW 07:18:22 10° NE daylight
31 Jan - 08:54:03 10° W 08:59:10 20° NW 09:03:39 10° N daylight
31 Jan - 23:44:20 10° N 23:48:54 20° NE 23:54:03 10° E night (unlit)
01 Feb - 01:29:31 10° NW 01:36:30 56° NNE 01:44:05 10° ESE visible
01 Feb - 03:17:23 10° W 03:25:01 88° S 03:32:50 10° E visible
01 Feb - 05:06:02 10° W 05:13:54 89° SSE 05:21:25 10° E visible
01 Feb - 06:54:52 10° W 07:02:20 52° NNW 07:09:06 10° NE daylight
01 Feb - 08:45:14 10° W 08:49:49 17° NW 08:53:49 10° N daylight
01 Feb - 23:34:35 10° N 23:39:32 23° NE 23:45:08 10° E night (unlit)
02 Feb - 01:20:14 10° NW 01:27:12 62° NNE 01:34:51 10° ESE visible
02 Feb - 03:08:13 10° W 03:15:47 85° S 03:23:37 10° E visible
02 Feb - 04:56:49 10° W 05:04:39 88° NNW 05:12:13 10° ENE visible
02 Feb - 06:45:38 10° W 06:53:00 47° NNW 06:59:45 10° NE daylight
02 Feb - 08:36:34 10° WNW 08:40:25 14° NW 08:43:45 10° NNW daylight
02 Feb - 23:24:55 10° NNW 23:30:09 26° NE 23:36:05 10° E night (unlit)
03 Feb - 01:10:58 10° WNW 01:17:53 67° NNE 01:25:34 10° ESE visible
03 Feb - 02:59:02 10° W 03:06:31 84° S 03:14:22 10° E visible
03 Feb - 04:47:34 10° W 04:55:22 84° NNW 05:02:59 10° ENE visible
03 Feb - 06:36:25 10° W 06:43:39 42° NNW 06:50:19 10° NE daylight
03 Feb - 08:28:16 10° WNW 08:31:00 12° NW 08:33:15 10° NNW daylight
03 Feb - 23:15:20 10° NNW 23:20:45 30° NE 23:26:57 10° E night (unlit)
04 Feb - 01:01:42 10° WNW 01:08:34 73° NNE 01:16:16 10° ESE visible
04 Feb - 02:49:49 10° W 02:57:15 83° S 03:05:06 10° E visible
04 Feb - 04:38:19 10° WSW 04:46:03 79° NNW 04:53:42 10° ENE visible
04 Feb - 06:27:12 10° W 06:34:14 37° NNW 06:40:48 10° NNE daylight
04 Feb - 23:05:48 10° NNW 23:11:20 34° NE 23:17:43 10° E night (unlit)
05 Feb - 00:52:27 10° WNW 00:59:14 78° NNE 01:06:55 10° ESE visible
05 Feb - 02:40:35 10° W 02:47:57 83° S 02:55:48 10° E visible
05 Feb - 04:29:02 10° WSW 04:36:42 74° NNW 04:44:21 10° ENE visible
05 Feb - 06:18:00 10° W 06:24:47 33° NW 06:31:11 10° NNE daylight
05 Feb - 22:56:19 10° NNW 23:01:55 38° NNE 23:08:27 10° E visible
